This demonstration page uses our WeatherBlox Daily Observations layout. Learn more.

38.89511, -77.03637

Hourly Observations for September 3, 2015

Temp ( °F °C ) Dew Point ( °F °C ) Humidity (%) Winds ( mph kmh ) Pressure ( in mb ) Visibility ( mi km ) Precip ( " mm )
12:52 am 00:52 Clear 75 23.9 69 20.6 82 82 W 7 11 29.95 1014 10 16.0934 0 0
1:52 am 01:52 Clear 76 24.4 68 20 77 77 W 5 7 29.93 1014 10 16.0934 0 0
2:52 am 02:52 Clear 76 24.4 67 19.4 74 74 W 5 7 29.91 1013 10 16.0934 0 0
3:52 am 03:52 Clear 76 24.4 67 19.4 74 74 Calm 29.9 1013 10 16.0934 0 0
4:52 am 04:52 Clear 75 23.9 67 19.4 76 76 NE 3 6 29.91 1013 10 16.0934 0 0
5:52 am 05:52 Clear 75 23.9 67 19.4 76 76 N 6 9 29.9 1013 10 16.0934 0 0
6:52 am 06:52 Partly Cloudy 75 23.9 66 18.9 74 74 N 7 11 29.91 1013 10 16.0934 0 0
7:52 am 07:52 Mostly Sunny 77 25 68 20 74 74 NNE 6 9 29.92 1013 10 16.0934 0 0
8:52 am 08:52 Sunny 81 27.2 67 19.4 62 62 NNW 6 9 29.93 1014 10 16.0934 0 0
9:52 am 09:52 Sunny 83 28.3 68 20 61 61 N 9 15 29.94 1014 10 16.0934 0 0
10:52 am 10:52 Mostly Sunny 86 30 69 20.6 57 57 NNW 6 9 29.93 1014 10 16.0934 0 0
11:52 am 11:52 Mostly Sunny 89 31.7 69 20.6 52 52 N 5 7 29.92 1013 10 16.0934 0 0
12:52 pm 12:52 Partly Cloudy 90 32.2 69 20.6 50 50 Calm 29.9 1013 10 16.0934 0 0
1:52 pm 13:52 Partly Cloudy 92 33.3 69 20.6 47 47 VRB 6 9 29.89 1012 10 16.0934 0 0
2:52 pm 14:52 Partly Cloudy 94 34.4 68 20 43 43 NNW 10 17 29.87 1012 10 16.0934 0 0
3:52 pm 15:52 Partly Cloudy 95 35 67 19.4 40 40 VRB 7 11 29.85 1011 10 16.0934 0 0
4:52 pm 16:52 Partly Cloudy 93 33.9 67 19.4 42 42 N 6 9 29.84 1010 10 16.0934 0 0
5:07 pm 17:07 Partly Cloudy with Thunderstorms 91 33 68 20 46 46 E 13 20 29.83 1010 10 16.0934 0 0
5:23 pm 17:23 Mostly Cloudy 88 31 68 20 52 52 ESE 16 26 29.83 1010 10 16.0934 0 0
5:41 pm 17:41 Mostly Cloudy with Thunderstorms 84 29 68 20 58 58 E 21 33 29.83 1010 10 16.0934 0 0
5:52 pm 17:52 Mostly Cloudy with Thunderstorms 85 29.4 67 19.4 55 55 SSE 12 19 29.85 1011 10 16.0934 0 0
5:59 pm 17:59 Mostly Cloudy with Light Thunderstorms 84 29 66 19 55 55 SSE 15 24 29.85 1011 10 16.0934 0 0.0254
6:11 pm 18:11 Mostly Cloudy 82 28 66 19 58 58 ENE 7 11 29.85 1011 10 16.0934 0 0.0254
6:37 pm 18:37 Mostly Cloudy 81 27 70 21 70 70 S 6 9 29.85 1011 10 16.0934 0 0.0254
6:52 pm 18:52 Mostly Cloudy 83 28.3 69 20.6 63 63 S 5 7 29.85 1011 10 16.0934 0 0.0254
7:52 pm 19:52 Mostly Cloudy 81 27.2 71 21.7 72 72 ENE 3 6 29.86 1011 10 16.0934 0 0
8:15 pm 20:15 Cloudy 81 27 73 23 79 79 E 8 13 29.88 1012 10 16.0934 0 0
8:52 pm 20:52 Cloudy 81 27.2 71 21.7 72 72 SSE 3 6 29.88 1012 10 16.0934 0 0
9:52 pm 21:52 Cloudy 80 26.7 72 22.2 76 76 S 5 7 29.9 1013 10 16.0934 0 0
10:52 pm 22:52 Cloudy 80 26.7 74 23.3 82 82 Calm 29.9 1012 10 16.0934 0 0
11:52 pm 23:52 Cloudy 79 26.1 69 20.6 72 72 N 6 9 29.9 1013 10 16.0934 0 0

Powered by AerisWeather